{"data":{"norad_id":67898,"epoch":"2026-09-19T14:12:05.766624Z","epoch_age_seconds":141730,"freshness":"FRESH","line1":"1 67898U 26035V   26262.59173341  .00027540  00000+0  85129-3 0  9990","line2":"2 67898  97.2793 194.4470 0003326  97.8219 262.3401 15.33478242 33706","mean_motion":15.33478242,"eccentricity":0.0003326,"inclination_deg":97.2793,"raan_deg":194.447,"arg_perigee_deg":97.8219,"mean_anomaly_deg":262.3401,"bstar":0.00085129,"rev_number":3370,"period_min":93.904169003527,"perigee_km":463.16809632966,"apogee_km":467.72044659144,"semimajor_km":6843.5812714605,"source":"CELESTRAK","updated_at":"2026-09-20T09:00:43.699475Z"}}